Regional Weather Roundup
Issued by NWS Pendleton, OR

Home | Current Version | Previous Version | Text Only | Print | Product List | Glossary On
Versions: 1 2 3 4 5 6 7 8 9 10 11 12 13 14 15 16 17 18 19 20 21 22 23 24 25 26 27 28 29 30 31 32 33 34 35 36 37 38 39 40 41 42 43 44 45 46 47 48 49 50
000
ASUS46 KPDT 030325
RWRPDT
PENDLETON REGIONAL WEATHER ROUNDUP
NATIONAL WEATHER SERVICE PENDLETON OREGON
800 PM PDT TUE JUN 2 2015

NOTE: FAIR INDICATES FEW OR NO CLOUDS BELOW 12,000 FEET WITH NO
SIGNIFICANT WEATHER AND/OR OBSTRUCTIONS TO VISIBILITY.

# INDICATES UNOFFICIAL STATION AND DATA

WAZ520-030410-
EAST SLOPES OF WASHINGTON CASCADES

CITY            SKY/WX      TMP DP  RH  WIND    PRES   REMARKS
#BULLFROG 2SW   N/A         50  43  77  W7      27.62R
#CLE ELUM HS    N/A         54  43  66  W7      29.95S
#CLE ELUM LAKE  N/A         51  42  71  CALM    29.94S
#CLIFFDEL 2NW   N/A         51  42  71  NW5     N/A
#GLENWOOD       N/A         57  45  64  S6      29.96R
#NELSON         N/A         54  46  74  CALM    29.98R
#NELSON 3SW     N/A         51  43  74  CALM    30.16S
#NILE           N/A         55  43  64  SW1     29.22R
#RONALD 2NW     N/A         54  37  52  W2      29.88S
#SNOWDEN        N/A         50  39  66  CALM    N/A
#TEANAWAY 4NE   N/A         55  45  69  SW2     N/A
#TROUT LAKE 1NE N/A         55  46  72  CALM    30.00R
$$

WAZ521-030410-
SIMCOE HIGHLANDS

CITY            SKY/WX      TMP DP  RH  WIND    PRES   REMARKS
#BICKLETON HS   N/A         56  35  45  W10     N/A
#CENTERVILLE 4W N/A         56  47  72  W14     29.77R
#CENTERVILLE 1SWN/A         55  45  69  W21     29.96R
#GOLDENDALE     N/A         59  44  57  W14     N/A
#GOODNOE HILLS  N/A         61  46  58  W22     N/A
#LYLE 6NE       N/A         55  48  77  SW15    29.98R
$$

WAZ026-030410-
KITTITAS VALLEY

CITY            SKY/WX      TMP DP  RH  WIND    PRES   REMARKS
ELLENSBURG AP   PTCLDY      58  42  55  NW20G28 29.97R
YTC-OPS AREA    N/A         51  40  66  W32G41  29.92F
#ELLENSBURG CWU N/A         57  44  62  W12     29.90R
#ELLENSBURG 3NE N/A         56  44  64  NW10G25 29.97S
#KITTITAS 4N    N/A         55  42  61  N10     28.28R
#KITTITAS 3S    N/A         57  45  64  NW10    29.91R
#THORP 6N       N/A         53  43  69  W16G25  29.96R
$$

WAZ027-030410-
YAKIMA VALLEY

CITY            SKY/WX      TMP DP  RH  WIND    PRES   REMARKS
SUNNYSIDE AP    CLEAR       64  44  48  W7      29.94R
YAKIMA AIRPORT  PTCLDY      66  43  43  N10     29.95R
#DONALD 2NE     N/A         65  35  33  W1      28.80R
#GRANDVIEW      N/A         68  41  37  NW3     29.92R
#MABTON         N/A         69  46  44  W7      29.92R
#MOXEE 2E       N/A         63  31  30  NW5     29.89R
#NACHES 2SW     N/A         59  46  62  W5      29.95S
#OUTLOOK DOT    N/A         N/A N/A N/A W12     N/A
#SELAH 8E       N/A         57  42  57  N9      N/A
#TERRACE HTS    N/A         64  44  48  N5      29.88R
#TOPPENISH      N/A         67  44  43  N5      29.83S
#WAPATO 4NE     N/A         65  35  33  W1      28.80R
#WEST VALLEY    N/A         63  44  50  N7      29.90R
#W YAKIMA       N/A         61  45  56  W3      29.92R
#WHITE SWAN 5E  N/A         67  47  49  W10     29.92R
#WILEY CITY 3W  N/A         61  38  42  CALM    29.92R
$$

WAZ028-030410-
LOWER COLUMBIA BASIN...WASHINGTON

CITY            SKY/WX      TMP DP  RH  WIND    PRES   REMARKS
HANFORD         PTCLDY      69  41  36  NW18G26 29.92R
PASCO           PTCLDY      73  43  34  SW12    29.91R
RICHLAND AWOS   CLOUDY      75  43  32  W8      29.91R
#BASIN CITY 5SW N/A         67  47  49  NW9     29.91R
#BENTON CITY    N/A         70  45  41  W10     29.80R
#CONNELL 5N     N/A         68  45  44  W2      29.88R
#CONNELL 5NW    N/A         63  49  60  CALM    29.85R
#ELTOPIA        N/A         67  55  65  CALM    29.87R
#ELTOPIA 6NW    N/A         68  49  51  W7      28.89S
#KAHLOTUS       N/A         69  42  37  NW17    29.88S
#KENNEWICK      N/A         50  43  77  W7      27.62R
#KENNEWICK 3S   N/A         68  45  44  W3      29.90R
#PATERSON       N/A         68  45  44  W12     29.91R
#PROSSER        N/A         70  40  34  W6      29.90R
#SAGEMOOR 2W    N/A         69  50  51  CALM    29.75R
#TOUCHET 2S     N/A         69  47  45  SW6     29.88S
#WEST PASCO     N/A         73  47  40  S5      29.88S
$$

WAZ029-030410-
FOOTHILLS OF THE BLUES...WASHINGTON

CITY            SKY/WX      TMP DP  RH  WIND    PRES   REMARKS
WALLA WALLA AP  PTCLDY      70  41  35  SW7     29.94S
#DAYTON SCHOOL  N/A         67  37  33  SE7     29.96S
#LOWDEN 2SE     N/A         69  49  49  W3      29.89R
#PLEASANT VIEW 1N/A         64  42  45  SW5     29.93R
#PRESCOTT       N/A         68  45  44  CALM    29.88S
#SUDBURY        N/A         67  N/A N/A CALM    N/A
#WHITMAN COLLEGEN/A         71  43  36  W7      29.95S
#WAITSBURG 8N   N/A         63  16  16  S2      29.74F
#WALLA WALLA U  N/A         72  45  38  CALM    29.90S
#WHITMAN MISSIONN/A         70  48  46  W2      29.91S
$$

WAZ030-030410-
BLUE MOUNTAINS...WASHINGTON

CITY            SKY/WX      TMP DP  RH  WIND    PRES   REMARKS
#DIXIE 5SE      N/A         58  39  49  SW5     29.93R
$$

ORZ009-041-WAZ024-030410-
COLUMBIA RIVER GORGE

CITY            SKY/WX      TMP DP  RH  WIND    PRES   REMARKS
HOOD RIVER AP   CLOUDY      59  48  67  CALM    30.05S
THE DALLES AP   MOCLDY      62  47  58  NW9     30.02R
#ARLINGTON AIRPON/A         61  46  58  W21     29.82F
#ARLINGTON HS   N/A         65  45  48  NW18    29.88R
#CELILO DOT     N/A         65  47  52  SW10    N/A
#MOSIER 1S      N/A         57  42  57  NW8     30.03R
#MURDOCK        N/A         62  51  67  W17     30.04R

$$

ORZ510-030410-
NORTH CENTRAL OREGON

CITY            SKY/WX      TMP DP  RH  WIND    PRES   REMARKS
#CHENOWITH 1W   N/A         53  47  80  NW25    N/A
#COW CYN RST AREN/A         54  N/A N/A SW12    N/A
#DUFUR 9E       N/A         53  45  74  W10     30.06R
#GRASS VALLEY 1SN/A         55  43  64  NW13    30.03R
#KENT DOT       N/A         55  37  51  W16     N/A
#MAUPIN SCHOOL  N/A         62  46  56  W7      30.04R
#MORO SCHOOL    N/A         56  49  77  W14G24  30.02S
#SHANIKO 5WSW   N/A         53  36  52  NW15    N/A
#SHANIKO 4NW    N/A         50  41  71  NW13    30.05R
#TYGH VALLEY 2NEN/A         60  44  55  SW9     29.99R
#WAPANITIA AIRPON/A         56  44  64  NW12    30.02R
#WASCO DOT      N/A         60  46  60  W21     N/A
#WASCO 5NE      N/A         58  46  64  W14     29.99R
$$

ORZ511-030410-
CENTRAL OREGON

CITY            SKY/WX      TMP DP  RH  WIND    PRES   REMARKS
BEND AIRPORT    MOCLEAR     54  41  61  N10     30.07R
MADRAS AIRPORT  MOCLDY      57  41  55  NW10    30.06R
PRINEVILLE AP   PTCLDY      55  41  59  W13     30.06R
REDMOND AIRPORT CLEAR       54  40  59  NW18G25 30.05R
#BEND 1SW       N/A         54  43  66  CALM    N/A
#BEND-AWBREY    N/A         53  43  69  CALM    30.01R
#BEND-KIM LN    N/A         53  45  74  CALM    30.03R
#CROOKED RVR RANN/A         56  42  59  N6      30.00R
#LAKE BILLY CHINN/A         58  17  20  W3      30.12R
#POWELL BUTTE   N/A         55  41  59  N3      29.70R
#PRINEVILLE 3N  N/A         54  45  71  NW3     29.95R
#WARM SPRINGS   N/A         61  43  51  S3      30.00R

$$


ORZ509-030410-
EAST SLOPES OF OREGON CASCADES

CITY            SKY/WX      TMP DP  RH  WIND    PRES   REMARKS
#BLUE BOX PASS  N/A         43  -8  11  SW1     N/A
#CAMP SHERMAN   N/A         54  42  64  CALM    30.03F
#LA PINE 4NW    N/A         50  39  66  CALM    30.05R
#SISTERS AIRPOR N/A         53  48  83  N6      30.17S
#SISTERS ODOT   N/A         53  N/A N/A SE7     N/A
#SISTERS 3N     N/A         52  39  61  CALM    30.04S
#SUNRIVER       N/A         50  41  71  S1      29.90R
#TUMALO 3W      N/A         52  42  69  N7      29.89R
#WANOGA BUTTE D N/A         44  34  68  W7      N/A

$$

ORZ044-030410-
LOWER COLUMBIA BASIN...OREGON

CITY            SKY/WX      TMP DP  RH  WIND    PRES   REMARKS
HERMISTON       CLOUDY      70  42  36  W22G29  29.94R
#BOARDMAN SCHOOLN/A         68  44  42  SW10    29.96R
#ECHO 8SW       N/A         68  44  42  W15     29.96R
#IONE SCHOOL    N/A         62  43  50  W12G30  29.97R
#IRRIGON 4NW    N/A         72  46  39  SW15G26 N/A
#UMATILLA SCHOOLN/A         69  53  57  W10     29.98R
#UMATILLA       N/A         70  45  41  SW9     29.85R
$$

ORZ507-030410-
NORTHERN FOOTHILLS OF THE BLUES

CITY            SKY/WX      TMP DP  RH  WIND    PRES   REMARKS
PENDLETON AIRPT MOCLDY      65  42  43  W13     29.96R
#ADAMS 3WNW     N/A         65  44  46  W7      29.91S
#ATHENA         N/A         66  43  43  W6      29.95R
#CAYUSE         N/A         64  45  50  W6      29.92S
#HELIX SCHOOL   N/A         65  43  45  W5      29.92R
#HELIX 3N       N/A         64  42  45  N9      29.94R
#HELIX 6SW      N/A         65  44  46  W13     29.96R
#HOLDMAN 5SE    N/A         67  45  45  E7      29.96S
#HOLDMAN 6E     N/A         65  42  43  NE12    29.74R
#M-F FERNDALE   N/A         72  44  37  CALM    29.93S
#M-F GROVE ELEM N/A         70  40  34  SW2     29.93S
#M-FREEWATER 5SEN/A         67  46  47  CALM    29.95S
#PENDLETON DNTN N/A         70  38  31  W3      29.93S
#PDT AQUATIC CTRN/A         69  40  35  W7      29.98S
#PDT SUNRIDGE   N/A         67  42  40  W6      29.96R
#PENDLETON 7NW  N/A         67  47  49  W13     29.16R
#PILOT ROCK     N/A         60  46  60  S5      30.00R
#TUTUILLA       N/A         63  48  58  S2      29.94R
#UMAPINE 2E     N/A         71  45  39  W3      29.90S
#WESTON SCHOOL  N/A         64  43  46  W6      29.92R

$$

ORZ508-030410-
SOUTHERN FOOTHILLS OF THE BLUES

CITY            SKY/WX      TMP DP  RH  WIND    PRES   REMARKS
#AJAX           N/A         56  40  55  W12     29.96R
#CONDON SCHOOL  N/A         56  46  69  CALM    29.99R
#CONDON 5W      N/A         52  43  71  NW9     30.00R
#FOSSIL SCHOOL  N/A         56  49  77  CALM    29.98R
#HEPPNER EOC    N/A         59  45  60  W12     29.91R
#HEPPNER 4NE    N/A         57  43  59  W15G25  29.96R
#LEXINGTON 2SE  N/A         63  46  54  NW9     29.98R
#RUGGS 5NE      N/A         53  48  83  W9      30.20R
#RUGGS 2SW      N/A         53  47  80  NW6     29.98R

$$

ORZ502-503-030410-
BLUE MOUNTAINS

CITY            SKY/WX      TMP DP  RH  WIND    PRES   REMARKS
MEACHAM         LGT RAIN    52  48  86  CALM    30.04R
#BATTLE MTN DOT N/A         49  48  96  S5      N/A
#HEPPNER 15SE   N/A         49  44  83  CALM    29.95R
#LADD CYN SMT   N/A         54  46  74  CALM    N/A
#LONG CREEK HS  N/A         52  51  96  CALM    29.98R
#N POWDER DOT   N/A         53  47  80  CALM    N/A
#PIKES PEAK     N/A         57  40  53  SW13    27.99S
#TOLLGATE       N/A         48  42  80  CALM    29.98R
#TROY SCHOOL    N/A         68  46  45  CALM    29.75S
#UKIAH          N/A         51  47  86  NE1     29.98R
#WESTON 4E      N/A         56  46  69  CALM    29.90S
$$

ORZ505-030410-
JOHN DAY BASIN

CITY            SKY/WX      TMP DP  RH  WIND    PRES   REMARKS
JOHN DAY        CLOUDY      53  50  89  CALM    30.05R
#JOHN DAY KJDY  N/A         57  57  100 CALM    29.88R
#DAYVILLE SCHOOLN/A         56  49  77  CALM    29.99S
#MONUMENT HS    N/A         60  48  64  N3      30.01R
#MT. VERNON 5SE N/A         51  47  86  W2      30.00R
$$

ORZ506-030410-
OCHOCO AND JOHN DAY HIGHLANDS

CITY            SKY/WX      TMP DP  RH  WIND    PRES   REMARKS
#BUCK CREEK DOT N/A         56  56  100 NW18    N/A
#HORSE RIDGE DO N/A         53  41  64  NW7     N/A
#KEYES SMT DOT  N/A         52  42  69  CALM    N/A
#PAULINA SCHOOL N/A         57  44  62  W1      30.01R
#PINE MTN OBS   N/A         45  37  73  NW7     N/A
#PRAIRIE CITY   N/A         54  49  83  CALM    30.01R
#SENECA         N/A         52  N/A N/A N1      N/A
#SENECA 9NW     N/A         49  46  89  CALM    29.93S
$$

ORZ049-030410-
GRANDE RONDE VALLEY

CITY            SKY/WX      TMP DP  RH  WIND    PRES   REMARKS
LA GRANDE       MOCLDY      55  41  59  W14     30.00S
#ELGIN 3N       N/A         58  47  67  S3      29.99R
#ELGIN 1E       N/A         58  49  72  CALM    N/A
#ISLAND CITY 4N N/A         58  53  83  CALM    30.08R
#LADD CYN DOT   N/A         56  50  80  SE6     N/A
#LA GRANDE ELEM N/A         54  45  71  SW13    30.04R
#UNION 1S       N/A         57  49  75  CALM    29.85F
$$

ORZ050-030410-
WALLOWA COUNTY

CITY            SKY/WX      TMP DP  RH  WIND    PRES   REMARKS
JOSEPH AIRPORT  THUNDER     54  48  80  S5      30.04S
#ENTERPRISE HS  N/A         56  50  80  CALM    30.02S
#IMNAHA SCHOOL  N/A         60  53  78  S1      29.98S
#IMNAHA 10S     N/A         56  52  86  CALM    29.99S
#JOSEPH 3N      N/A         54  45  71  CALM    30.04S
#JOSEPH 3W      N/A         49  47  93  CALM    29.89R
#LOSTINE        N/A         57  47  69  NW5     29.74R
#MT HOWARD 8000 N/A         38  36  92  CALM    30.11S
#PROMISE 1S     N/A         56  43  62  SE2     30.05R
#WALLOWA SCHOOL N/A         56  47  72  CALM    30.84R



$$



USA.gov is the U.S. government's official web portal to all federal, state and local government web resources and services.